CST,Max TemperatureF,Mean TemperatureF,Min TemperatureF,Max Dew PointF,MeanDew PointF,Min DewpointF,Max Humidity, Mean Humidity, Min Humidity, Max Sea Level PressureIn, Mean Sea Level PressureIn, Min Sea Level PressureIn, Max VisibilityMiles, Mean VisibilityMiles, Min VisibilityMiles, Max Wind SpeedMPH, Mean Wind SpeedMPH, Max Gust SpeedMPH,PrecipitationIn, CloudCover, Events, WindDirDegrees
2013-12-1,44,33,22,30,26,20,95,78,51,30.13,30.06,29.97,10,7,5,12,3,,0.00,2,,26
2013-12-2,41,36,30,34,30,27,94,82,64,29.96,29.83,29.71,10,6,2,15,5,20,0.01,7,Rain,117
2013-12-3,45,40,35,45,39,34,97,96,94,29.71,29.68,29.64,2,1,0,16,9,20,0.01,8,Fog-Rain-Snow,133
2013-12-4,52,42,32,51,44,30,97,96,88,29.72,29.62,29.49,10,3,0,30,10,44,0.01,8,Fog-Rain,170
2013-12-5,31,24,18,29,16,10,92,76,66,30.27,30.05,29.73,10,10,7,26,20,33,0.00,3,Snow,282
2013-12-6,18,14,9,10,7,2,77,72,61,30.56,30.39,30.26,10,10,10,15,10,16,0.00,3,,319
2013-12-7,19,12,4,7,2,-2,84,71,48,30.70,30.62,30.56,10,10,10,9,6,,0.00,0,,330
2013-12-8,23,17,11,21,14,5,93,82,70,30.59,30.22,29.95,10,6,0,17,8,21,0.00,7,Snow,77
2013-12-9,21,5,-11,20,5,-16,94,80,68,30.23,30.12,29.94,10,8,2,28,13,31,0.00,3,Snow,255
2013-12-10,20,4,-13,13,3,-18,84,74,62,30.29,30.13,29.99,10,9,2,26,13,34,0.00,4,Snow,240
2013-12-11,19,3,-13,14,2,-19,92,76,57,30.57,30.42,30.25,10,7,0,17,6,18,0.00,4,Snow,277
2013-12-12,17,2,-14,10,0,-20,88,77,65,30.54,30.35,30.20,10,10,10,20,9,23,0.00,2,,221
2013-12-13,29,16,4,26,16,1,90,81,67,30.20,30.12,30.07,10,8,2,13,5,17,0.00,3,Snow,82
2013-12-14,29,23,17,28,23,14,94,88,81,30.08,29.99,29.93,10,6,1,16,12,21,0.00,7,Rain-Snow,11
2013-12-15,19,14,8,16,6,3,91,76,67,30.12,30.04,29.96,10,10,4,21,13,25,0.00,7,Snow,280
2013-12-16,18,12,7,15,8,-1,93,76,54,30.13,30.07,30.01,10,8,1,10,6,,0.00,8,Snow,66
2013-12-17,34,25,16,26,19,11,96,82,66,30.12,30.02,29.95,10,7,2,24,13,28,0.00,5,Snow,267
2013-12-18,30,16,2,22,14,-1,92,80,60,30.14,29.98,29.81,10,10,10,23,10,25,0.00,0,,195
2013-12-19,36,28,21,32,28,19,96,90,79,29.90,29.85,29.78,10,7,2,16,6,18,0.03,3,Rain,69
2013-12-20,33,30,26,32,30,25,100,96,94,29.82,29.78,29.73,10,5,2,15,8,18,0.03,8,Rain,38
2013-12-21,32,28,25,32,28,25,99,97,93,29.86,29.78,29.62,10,3,0,0,0,,0.00,8,Fog-Rain-Snow,-1
2013-12-22,32,27,22,32,25,20,97,91,81,30.14,29.85,29.60,10,7,0,0,0,,0.00,8,Rain-Snow,-1
2013-12-23,21,8,-6,19,0,-11,91,80,70,30.46,30.35,30.14,10,9,3,0,0,,0.00,3,Snow,-1
2013-12-24,17,3,-11,13,-4,-17,88,78,57,30.56,30.46,30.30,10,10,2,0,0,,0.00,2,Snow,-1
2013-12-25,25,21,17,23,19,13,94,88,81,30.30,30.17,30.11,10,6,2,0,0,,0.00,8,Snow,-1
2013-12-26,30,18,5,28,18,3,96,85,75,30.26,30.19,30.13,10,10,7,10,1,,0.00,6,Snow,202
2013-12-27,37,24,11,31,23,9,96,87,76,30.27,30.18,30.08,10,7,0,18,6,23,0.06,2,Fog,208
2013-12-28,40,32,25,32,29,24,95,85,73,30.09,29.97,29.80,10,10,7,17,10,,0.00,0,,198
2013-12-29,33,20,6,31,19,0,93,83,72,30.22,29.97,29.77,10,8,2,25,14,30,0.00,6,,309
2013-12-30,9,2,-6,1,-5,-12,83,71,54,30.33,30.25,30.19,10,8,2,13,6,,0.00,4,Snow,302
2013-12-31,10,-1,-12,6,-2,-17,87,82,73,30.34,30.27,30.19,10,8,1,16,3,16,0.00,6,Snow,259